<2HTML> 195P/Hill (2025)

ヒル彗星

195P/Hill (2025)

English version
Home page
Updated on March 26, 2025

---------------------------------------------------------------------

・ プロフィール

・ 写真集

・ 軌道要素

Epoch 2025 May 5.0 TT = JDT 2460800.5
T 2025 Aug. 5.50105 TT                                  Pike
q   4.4406023            (2000.0)            P               Q
n   0.06022674     Peri.  250.58478     -0.52644622     -0.66524891
a   6.4457951      Node   243.10080     +0.80973439     -0.58215336
e   0.3110854      Incl.   36.41746     -0.25919990     -0.46748406
P  16.4
From 845 observations 1993 Feb. 26-2025 Feb. 25, mean residual 0".6.

・ 光度変化

        m1 = 4.0 + 5 logΔ + 15.0 log r(t - 100)

---------------------------------------------------------------------

軌道要素はM.P.E.C. 2025-D254に掲載されたものです。
光度グラフはComet for Windowsで作成したものです。

---------------------------------------------------------------------

Copyright(C) Seiichi Yoshida (comet@aerith.net). All rights reserved.